ICE602 CYYZ-BIKF

Flight info

Callsign ICE602
Flight time N/A
Altitude 33000
Route SEDOG6 BOBSU DCT MT DCT 55N070W DCT KLIPS DCT LOPVI DCT MUSLO/M079F330 DCT NIFTY DCT 62N050W 63N040W 64N030W DCT GISTU DCT GIRUG GIRUG4N
Aircraft B38M/M-SDE1FGHILORVWXY/HB1

Departure

Time 2026-05-06 19:16
Airport Toronto Pearson International Airport (CYYZ)

Arrival

Time N/A
Airport Keflavik International Airport (BIKF)
Time Latitude Longitude Altitude Speed Heading
2026-05-06 18:47 43.67890 -79.63627 572 ft 0 kts 60°
2026-05-06 19:00 43.67880 -79.63652 572 ft 4 kts 60°
2026-05-06 19:00 43.67871 -79.63673 574 ft 4 kts 60°
2026-05-06 19:01 43.67864 -79.63710 569 ft 4 kts 112°
2026-05-06 19:01 43.67875 -79.63739 576 ft 3 kts 120°
2026-05-06 19:01 43.67885 -79.63762 574 ft 4 kts 127°
2026-05-06 19:01 43.67905 -79.63785 572 ft 4 kts 142°
2026-05-06 19:02 43.67911 -79.63793 571 ft 2 kts 136°
2026-05-06 19:06 43.67911 -79.63791 571 ft 1 kts 124°
2026-05-06 19:07 43.67919 -79.63779 575 ft 1 kts
2026-05-06 19:07 43.67927 -79.63786 573 ft 4 kts 316°
2026-05-06 19:07 43.67905 -79.63905 571 ft 17 kts 230°
2026-05-06 19:07 43.67914 -79.64054 571 ft 18 kts 317°
2026-05-06 19:08 43.68009 -79.64178 569 ft 19 kts 317°
2026-05-06 19:08 43.68108 -79.64307 567 ft 20 kts 315°
2026-05-06 19:08 43.68211 -79.64441 568 ft 20 kts 314°
2026-05-06 19:08 43.68306 -79.64564 568 ft 11 kts 316°
2026-05-06 19:09 43.68341 -79.64646 569 ft 10 kts 256°
2026-05-06 19:09 43.68304 -79.64712 573 ft 8 kts 229°
2026-05-06 19:09 43.68258 -79.64778 572 ft 15 kts 226°
2026-05-06 19:09 43.68152 -79.64932 572 ft 27 kts 226°
2026-05-06 19:10 43.68056 -79.65072 572 ft 17 kts 226°
2026-05-06 19:10 43.67961 -79.65211 568 ft 23 kts 227°
2026-05-06 19:10 43.67844 -79.65379 570 ft 25 kts 226°
2026-05-06 19:10 43.67724 -79.65551 574 ft 24 kts 227°
2026-05-06 19:11 43.67613 -79.65714 571 ft 23 kts 225°
2026-05-06 19:11 43.67500 -79.65879 572 ft 24 kts 226°
2026-05-06 19:11 43.67384 -79.66046 571 ft 21 kts 228°
2026-05-06 19:11 43.67307 -79.66158 566 ft 13 kts 225°
2026-05-06 19:12 43.67296 -79.66268 574 ft 14 kts 310°
2026-05-06 19:12 43.67380 -79.66345 567 ft 15 kts 340°
2026-05-06 19:12 43.67473 -79.66322 566 ft 13 kts 49°
2026-05-06 19:12 43.67485 -79.66306 572 ft 0 kts 45°
2026-05-06 19:15 43.67574 -79.66177 573 ft 51 kts 46°
2026-05-06 19:15 43.67818 -79.65822 569 ft 99 kts 46°
2026-05-06 19:15 43.68440 -79.64922 576 ft 159 kts 46°
2026-05-06 19:15 43.69306 -79.63699 747 ft 191 kts 44°
2026-05-06 19:16 43.70256 -79.62292 1251 ft 208 kts 47°
2026-05-06 19:16 43.71350 -79.60869 1984 ft 223 kts 42°
2026-05-06 19:16 43.72606 -79.59471 2592 ft 243 kts 40°
2026-05-06 19:16 43.73887 -79.58138 3215 ft 256 kts 35°
2026-05-06 19:17 43.75534 -79.57077 4043 ft 266 kts 15°
2026-05-06 19:17 43.77414 -79.57070 4729 ft 281 kts 347°
2026-05-06 19:17 43.79362 -79.57583 5562 ft 285 kts 354°
2026-05-06 19:17 43.81347 -79.57819 6456 ft 289 kts 356°
2026-05-06 19:18 43.83366 -79.58010 7298 ft 292 kts 357°
2026-05-06 19:18 43.85409 -79.58184 8115 ft 296 kts 357°
2026-05-06 19:18 43.86107 -79.58242 8380 ft 297 kts 357°